Total_Precipitation_Accumulation
0.82 0.84 0.87 0.98 0.93 1.02 1.04 0.87 0.71 0.73 0.72 0.71 0.63 0.63 0.62 0.61 0.64 0.71 0.77 0.70 0.65 0.73 0.90 0.99 0.99 0.94 0.88 0.84 0.79 0.79 0.77 0.75 0.71 0.65 0.56 0.49 0.47 0.47 0.49 0.50 0.50 0.51 0.52
1.03 1.06 1.10 1.13 1.10 1.25 1.29 1.08 0.95 1.03 1.01 1.01 0.85 0.79 0.78 0.82 0.81 0.78 0.82 0.83 0.71 0.67 0.77 0.93 1.01 1.02 0.99 0.94 0.87 0.83 0.81 0.81 0.78 0.71 0.62 0.55 0.52 0.51 0.50 0.53 0.55 0.54 0.51
1.39 1.44 1.52 1.46 1.37 1.36 1.38 1.29 1.20 1.19 1.21 1.07 0.95 0.92 0.94 0.85 0.80 0.86 0.94 1.00 0.94 0.84 0.82 0.85 0.91 0.99 1.08 1.11 1.09 1.01 0.94 0.89 0.83 0.77 0.72 0.66 0.60 0.57 0.54 0.54 0.55 0.55 0.53
1.67 1.83 1.87 1.67 1.57 1.53 1.60 1.60 1.46 1.40 1.40 1.38 1.19 1.01 1.04 1.02 0.90 0.89 0.92 0.97 1.07 1.02 0.95 0.85 0.88 0.93 0.97 1.05 1.12 1.13 1.06 0.98 0.93 0.88 0.84 0.79 0.73 0.65 0.59 0.56 0.55 0.55 0.55
1.83 2.00 2.05 1.97 1.80 1.82 1.86 1.78 1.87 1.75 1.70 1.54 1.28 1.12 1.00 0.93 0.94 0.90 0.94 0.99 0.99 1.00 1.06 1.04 1.01 0.99 1.00 1.07 1.10 1.09 1.09 1.07 1.03 0.98 0.93 0.90 0.82 0.74 0.65 0.61 0.59 0.60 0.61
2.07 2.27 2.27 2.28 2.18 2.18 2.23 2.16 2.14 1.98 1.78 1.61 1.39 1.21 1.02 0.85 0.86 0.91 0.90 0.88 0.84 0.81 0.84 0.89 0.97 0.95 0.95 0.99 1.04 1.14 1.28 1.27 1.18 1.09 1.05 1.03 0.96 0.85 0.73 0.68 0.65 0.64 0.64
2.73 2.87 2.80 2.70 2.52 2.44 2.42 2.32 2.20 2.04 1.88 1.82 1.71 1.46 1.14 0.91 0.82 0.79 0.78 0.75 0.69 0.68 0.66 0.70 0.78 0.82 0.83 0.84 0.87 0.95 1.11 1.20 1.18 1.16 1.14 1.10 1.05 0.98 0.90 0.82 0.76 0.74 0.72
3.38 3.34 3.24 2.98 2.73 2.52 2.36 2.22 2.07 1.94 1.79 1.73 1.71 1.65 1.42 1.14 0.87 0.70 0.71 0.70 0.69 0.71 0.69 0.64 0.65 0.67 0.66 0.66 0.66 0.72 0.79 0.82 0.87 0.95 0.99 0.98 0.97 0.99 1.00 0.97 0.93 0.90 0.87
3.24 3.14 3.04 2.89 2.67 2.48 2.30 2.22 2.11 2.00 1.85 1.79 1.76 1.76 1.60 1.28 0.96 0.77 0.69 0.68 0.70 0.68 0.65 0.63 0.62 0.62 0.60 0.58 0.58 0.65 0.70 0.69 0.68 0.75 0.85 0.88 0.90 0.93 0.95 0.98 0.99 0.99 0.99
2.93 2.77 2.77 2.73 2.59 2.40 2.21 2.06 1.97 1.93 1.91 1.80 1.66 1.49 1.35 1.15 1.08 0.96 0.81 0.74 0.70 0.67 0.63 0.59 0.58 0.59 0.61 0.61 0.64 0.67 0.70 0.69 0.68 0.69 0.73 0.77 0.80 0.82 0.86 0.90 0.96 1.03 1.07
2.66 2.50 2.48 2.41 2.23 2.09 1.95 1.81 1.71 1.67 1.69 1.65 1.55 1.45 1.36 1.21 1.07 1.02 0.94 0.82 0.77 0.70 0.61 0.57 0.56 0.58 0.60 0.60 0.62 0.67 0.73 0.70 0.71 0.72 0.72 0.73 0.77 0.83 0.88 0.95 1.05 1.16 1.26
2.44 2.21 2.00 1.89 1.86 1.74 1.55 1.42 1.34 1.28 1.28 1.33 1.36 1.29 1.19 1.17 1.13 1.10 1.05 0.94 0.89 0.82 0.71 0.66 0.63 0.59 0.60 0.56 0.55 0.67 0.68 0.68 0.68 0.65 0.65 0.65 0.67 0.73 0.81 0.89 1.02 1.18 1.35
1.96 1.77 1.59 1.46 1.43 1.40 1.31 1.18 1.11 1.04 1.02 1.05 1.07 1.11 1.10 1.06 1.01 1.05 1.13 1.10 1.01 0.88 0.73 0.63 0.55 0.49 0.50 0.54 0.60 0.64 0.62 0.63 0.60 0.57 0.59 0.62 0.64 0.66 0.66 0.71 0.78 0.91 1.04
1.50 1.28 1.17 1.10 1.02 0.95 0.91 0.90 0.91 0.90 0.88 0.92 0.94 0.99 1.03 0.99 0.98 0.98 1.01 1.08 1.08 0.94 0.79 0.66 0.54 0.51 0.53 0.56 0.61 0.54 0.56 0.54 0.52 0.53 0.54 0.57 0.61 0.69 0.68 0.64 0.63 0.68 0.73
1.12 1.00 0.90 0.84 0.80 0.76 0.71 0.69 0.71 0.73 0.75 0.76 0.78 0.81 0.84 0.82 0.83 0.86 0.89 0.95 1.02 0.98 0.87 0.70 0.64 0.63 0.65 0.63 0.67 0.61 0.64 0.57 0.53 0.56 0.57 0.61 0.69 0.81 0.81 0.71 0.62 0.56 0.54
0.86 0.80 0.76 0.72 0.68 0.64 0.63 0.65 0.65 0.66 0.66 0.64 0.60 0.56 0.54 0.53 0.54 0.56 0.63 0.71 0.79 0.87 0.88 0.71 0.64 0.66 0.69 0.63 0.69 0.66 0.65 0.63 0.62 0.83 0.93 0.83 0.77 0.93 1.04 0.94 0.79 0.67 0.62
0.65 0.63 0.60 0.58 0.57 0.56 0.55 0.55 0.52 0.49 0.46 0.45 0.43 0.43 0.44 0.42 0.42 0.42 0.46 0.57 0.68 0.80 0.90 0.74 0.64 0.65 0.71 0.69 0.69 0.68 0.65 0.66 0.76 1.14 1.38 1.54 1.27 1.15 1.21 1.12 0.96 0.79 0.68
0.59 0.57 0.51 0.49 0.46 0.43 0.40 0.37 0.35 0.33 0.35 0.37 0.38 0.40 0.41 0.40 0.39 0.39 0.44 0.52 0.62 0.77 0.93 0.89 0.75 0.75 0.76 0.73 0.80 0.80 0.70 0.60 0.67 1.09 1.44 1.77 1.72 1.51 1.52 1.34 1.14 0.88 0.72
0.51 0.48 0.45 0.43 0.40 0.39 0.35 0.31 0.30 0.29 0.31 0.34 0.36 0.39 0.40 0.46 0.46 0.46 0.52 0.58 0.63 0.71 0.88 0.93 0.85 0.86 0.90 0.93 1.04 0.95 0.81 0.76 0.60 0.85 1.29 1.62 1.81 1.87 1.97 1.82 1.50 1.12 0.83
0.45 0.48 0.48 0.40 0.33 0.30 0.30 0.28 0.25 0.26 0.28 0.30 0.33 0.38 0.41 0.49 0.54 0.56 0.57 0.61 0.67 0.76 0.83 0.93 0.93 0.97 1.01 1.06 1.12 1.09 0.92 0.79 0.69 0.70 1.13 1.60 1.93 2.00 2.19 2.32 2.02 1.51 1.07
0.43 0.43 0.44 0.41 0.36 0.30 0.26 0.23 0.20 0.23 0.28 0.32 0.33 0.34 0.38 0.46 0.54 0.51 0.48 0.51 0.64 0.81 0.86 0.95 0.98 0.96 0.94 1.04 1.06 0.92 0.82 0.72 0.64 0.65 0.84 1.27 1.95 2.28 2.34 2.40 2.29 1.79 1.31
0.46 0.42 0.41 0.39 0.36 0.27 0.25 0.21 0.18 0.23 0.29 0.34 0.36 0.35 0.31 0.33 0.32 0.34 0.39 0.45 0.56 0.77 1.03 1.16 1.08 1.00 0.88 0.88 0.90 0.85 0.83 0.78 0.72 0.55 0.58 0.90 1.49 2.22 2.48 2.48 2.37 1.80 1.29
0.44 0.40 0.36 0.34 0.32 0.26 0.21 0.18 0.17 0.21 0.30 0.38 0.40 0.37 0.28 0.21 0.26 0.32 0.35 0.38 0.50 0.66 0.90 1.20 1.27 1.02 0.93 0.88 0.90 0.91 0.92 0.94 0.87 0.62 0.63 0.88 1.28 1.95 2.20 2.25 2.13 1.56 1.14
0.40 0.40 0.37 0.34 0.31 0.21 0.16 0.14 0.15 0.21 0.30 0.34 0.35 0.36 0.36 0.33 0.27 0.29 0.33 0.41 0.55 0.69 0.78 0.87 1.15 1.00 0.81 0.79 0.83 0.84 0.89 0.91 0.84 0.68 0.66 0.92 1.25 1.71 1.76 1.86 1.81 1.41 1.08
0.39 0.35 0.30 0.30 0.30 0.24 0.15 0.12 0.13 0.21 0.26 0.27 0.28 0.27 0.25 0.27 0.26 0.35 0.50 0.68 0.82 0.95 0.90 1.01 1.17 1.13 1.02 0.93 0.80 0.79 0.91 0.92 0.89 0.78 0.71 0.86 1.12 1.28 1.41 1.54 1.45 1.30 1.09
0.35 0.28 0.24 0.26 0.27 0.24 0.13 0.10 0.11 0.18 0.25 0.27 0.30 0.31 0.24 0.22 0.30 0.45 0.68 0.91 1.03 1.12 1.03 1.10 1.31 1.36 1.20 1.16 1.12 1.00 1.00 0.95 0.90 0.89 0.73 0.76 0.95 0.97 1.23 1.31 1.23 1.15 1.10